[[{"header":{"parameterUnit":"m.s-1","parameterCategory":1,"la1":30.2991,"la2":30.254,"lo1":-89.0895,"lo2":-89.0444,"dy":0.0017,"dx":0.0017,"nx":28,"ny":28,"refTime":"2025-09-17T09:00:00:Z","depth":0,"parameterNumber":2,"parameterNumberName":"U-component_of_WINDS"},"data":[0,0,0,0,0,0,0,0,0,0,0,0,0,0,0,0,0,0,0,0,0,0,0,0,0,0,0,0,0,0,0,0,0,0,0,0,0,0,0,0,0,0,0,0,0,0,0,0,0,0,0,0,0,0,0,0,0,0,0.0105,0.0105,0,0.0115,0.0115,0.0115,0.0139,0.014,0.014,0.0141,0.015,0.0149,0.0149,0,0,0,0,0,0,0,0,0,0,0,0,0,0.0105,0.0105,0.0105,0.0105,0.0106,0.0115,0.0115,0.0115,0.0139,0.014,0.0141,0.0141,0.015,0.0149,0.0149,0,0,0,0,0,0,0,0,0,0,0,0,0,0.0109,0.0105,0.0105,0.0119,0.012,0.0115,0.0115,0.0115,0.0139,0.014,0.0141,0.0141,0.015,0.0149,0.0149,0.0132,0,0,0.0148,0.0148,0,0,0,0,0,0,0,0,0.0109,0.0109,0.0117,0.0118,0.0119,0.0127,0.0118,0.0121,0.0139,0.0132,0.0141,0.0142,0.0141,0.0142,0.0142,0.0132,0.0133,0.0148,0.0148,0.0148,0.0148,0,0,0,0,0,0,0,0.0108,0.0109,0.0109,0.0117,0.0118,0.0123,0.0125,0.0119,0.0132,0.0132,0.0134,0.0135,0.0142,0.0142,0.0142,0.0133,0.0148,0.0148,0.0147,0.0147,0.0107,0.0106,0,0,0,0,0,0,0.0106,0.0108,0.0109,0.0109,0.0116,0.0123,0.0124,0.0124,0.0132,0.0134,0.0135,0.0136,0.0142,0.0143,0.0143,0.0121,0.0148,0.0147,0.0147,0.0108,0.0107,0.0106,0,0,0,0,0,0,0.0106,0.0106,0.0108,0.0109,0.011,0.0122,0.0121,0.0123,0.0123,0.0134,0.0136,0.0132,0.0143,0.0143,0.0134,0.0122,0.0147,0.0147,0.0109,0.0108,0.0107,0.0079,0,0,0,0,0,0,0.0106,0.0106,0.01,0.0109,0.011,0.01,0.012,0.0123,0.0123,0.0125,0.0132,0.0134,0.0144,0.0134,0.0134,0.0122,0.0147,0.011,0.0108,0.0107,0.0081,0.0077,0.0074,0,0,0,0,0,0.0106,0.0092,0.01,0.01,0.0103,0.0099,0.01,0.0111,0.0122,0.0115,0.0122,0.0134,0.0124,0.0133,0.0133,0.0121,0.0111,0.0109,0.0107,0.0083,0.0078,0.0074,0,0,0,0,0,0,0.0081,0.0094,0.0102,0.0091,0.0094,0.0103,0.0096,0.0106,0.0106,0.0108,0.0122,0.0123,0.0112,0.0116,0.0126,0.0103,0.0119,0.0117,0.0101,0.0097,0.0093,0.0092,0.0146,0,0,0,0,0,0.0075,0.0072,0.0082,0.0071,0.0072,0.0084,0.0083,0.0091,0.0095,0.0096,0.0102,0.0105,0.0102,0.01,0.0098,0.0083,0.0083,0.0074,0.007,0.0067,0.0065,0.0055,0.005,0.01,0.01,0.01,0,0,0.0061,0.0067,0.0064,0.0066,0.007,0.0065,0.0085,0.0079,0.0076,0.0095,0.0086,0.0091,0.0095,0.0082,0.0076,0.0084,0.0051,0.0065,0.0062,0.0061,0.0052,0.0048,0.0044,0.0098,0.0099,0.0099,0,0,0.0033,0.0038,0.0028,0.0031,0.0036,0.0044,0.0041,0.0049,0.0053,0.0044,0.0058,0.0054,0.0049,0.0051,0.0051,0.0022,0.0032,0.0021,0.0001,-0.0008,-0.0012,-0.0016,-0.0028,-0.0032,0.0019,0.0019,0.0019,0,0.0014,0.0009,0.0022,0.0015,0.0015,0.0033,0.0023,0.0025,0.0029,0.0028,0.0037,0.003,0.0034,0.0021,0.0014,0.0014,0.0011,0.002,-0.0013,-0.0016,-0.0019,-0.003,-0.0035,0.0017,0.0018,0.0018,0.0018,0,-0.0015,-0.0019,-0.0028,-0.0025,-0.0025,-0.0034,-0.0023,-0.0025,-0.0017,-0.0011,-0.002,-0.0015,-0.0016,-0.0018,-0.001,-0.0031,-0.0026,-0.0015,0.0001,-0.0026,-0.0036,-0.004,0.0015,0.0016,0.0016,0.0017,0,0,-0.0059,-0.0049,-0.0052,-0.0051,-0.0045,-0.0048,-0.0057,-0.0058,-0.0061,-0.0059,-0.0067,-0.0071,-0.0061,-0.0061,-0.0052,-0.006,-0.0086,-0.0048,-0.0048,-0.0057,-0.0111,-0.0121,-0.0126,-0.0078,-0.0079,-0.008,-0.0112,0,-0.0087,-0.01,-0.0088,-0.0104,-0.0109,-0.0092,-0.01,-0.0097,-0.0092,-0.0096,-0.009,-0.0094,-0.0079,-0.008,-0.0087,-0.0081,-0.0097,-0.0079,-0.0087,-0.0087,-0.009,-0.0131,-0.0141,-0.0171,-0.0116,-0.0116,-0.0117,0,-0.0121,-0.0121,-0.0137,-0.0131,-0.0133,-0.014,-0.0141,-0.0144,-0.0141,-0.0137,-0.0137,-0.0127,-0.0135,-0.0119,-0.0132,-0.012,-0.0122,-0.012,-0.0121,-0.0123,-0.0105,-0.0135,-0.018,-0.0186,-0.0123,-0.0122,-0.0122,0,-0.0154,-0.0158,-0.0168,-0.0168,-0.016,-0.0166,-0.0163,-0.016,-0.0162,-0.0162,-0.0164,-0.0166,-0.0167,-0.0169,-0.016,-0.0148,-0.0174,-0.0157,-0.0172,-0.0173,-0.018,-0.018,-0.0228,-0.0179,-0.0178,-0.0178,-0.0178,0,-0.0187,-0.0198,-0.0183,-0.019,-0.0202,-0.0189,-0.0202,-0.0198,-0.0195,-0.0201,-0.0187,-0.0193,-0.018,-0.0185,-0.0178,-0.019,-0.0191,-0.0188,-0.0187,-0.0191,-0.0191,-0.0193,-0.0192,-0.018,-0.0179,-0.0179,-0.0179,0,-0.0226,-0.0216,-0.0227,-0.0219,-0.0218,-0.0228,-0.0221,-0.0228,-0.0222,-0.023,-0.0231,-0.0222,-0.0227,-0.0218,-0.0222,-0.0217,-0.0236,-0.023,-0.0237,-0.0236,-0.0253,-0.0252,-0.0305,-0.0312,-0.0257,-0.0257,-0.0258,0,-0.0249,-0.0257,-0.0251,-0.0254,-0.0252,-0.0257,-0.0259,-0.0247,-0.025,-0.0248,-0.0255,-0.0259,-0.0262,-0.0272,-0.0266,-0.027,-0.0265,-0.0284,-0.0266,-0.027,-0.0268,-0.0268,-0.027,-0.0288,-0.0289,-0.0289,-0.0289,0,-0.0291,-0.0286,-0.0289,-0.0291,-0.0294,-0.0295,-0.0295,-0.0298,-0.0285,-0.0289,-0.0295,-0.0297,-0.0302,-0.0308,-0.031,-0.0308,-0.0298,-0.0295,-0.0299,-0.0304,-0.0309,-0.0308,-0.0249,-0.0294,-0.0294,-0.0293,-0.0293,-0.0293,-0.0324,-0.0331,-0.0328,-0.0332,-0.0331,-0.0332,-0.0338,-0.0332,-0.0337,-0.034,-0.0332,-0.034,-0.0338,-0.0341,-0.034,-0.0347,-0.0339,-0.0344,-0.0346,-0.0348,-0.0352,-0.0306,-0.0347,-0.0347,-0.0346,-0.0346,-0.0346,0,-0.0367,-0.0364,-0.0368,-0.0369,-0.0373,-0.0361,-0.0361,-0.0365,-0.0373,-0.0372,-0.0375,-0.0382,-0.0388,-0.0382,-0.0387,-0.0393,-0.0388,-0.0395,-0.0395,-0.0395,-0.0357,-0.0354,-0.0399,-0.0399,-0.0399,-0.0399,-0.0399,-0.0399,-0.039,-0.0402,-0.0397,-0.0409,-0.0406,-0.0413,-0.0414,-0.0415,-0.0415,-0.0424,-0.0428,-0.0424,-0.0422,-0.0426,-0.0431,-0.0429,-0.0432,-0.0441,-0.0438,-0.0403,-0.0398,-0.0393,-0.039,-0.0441,-0.0441,-0.0475,-0.0476,-0.0476]},{"header":{"parameterUnit":"m.s-1","parameterCategory":1,"la1":30.2991,"la2":30.254,"lo1":-89.0895,"lo2":-89.0444,"dy":0.0017,"dx":0.0017,"nx":28,"ny":28,"refTime":"2025-09-17T09:00:00:Z","depth":0,"parameterNumber":3,"parameterNumberName":"V-component_of_WINDS"},"data":[0,0,0,0,0,0,0,0,0,0,0,0,0,0,0,0,0,0,0,0,0,0,0,0,0,0,0,0,0,0,0,0,0,0,0,0,0,0,0,0,0,0,0,0,0,0,0,0,0,0,0,0,0,0,0,0,0,0,2.8243,2.8243,0,2.8255,2.8255,2.8255,2.8219,2.8218,2.8217,2.8216,2.8226,2.8227,2.8229,0,0,0,0,0,0,0,0,0,0,0,0,0,2.8189,2.819,2.8243,2.8243,2.8244,2.8255,2.8255,2.8255,2.8219,2.8218,2.8216,2.8215,2.8226,2.8227,2.8229,0,0,0,0,0,0,0,0,0,0,0,0,0,2.8208,2.819,2.8243,2.8227,2.8226,2.8255,2.8255,2.8255,2.8219,2.8218,2.8216,2.8215,2.8225,2.8227,2.8229,2.8274,0,0,2.8235,2.8236,0,0,0,0,0,0,0,0,2.8207,2.821,2.8229,2.8228,2.8227,2.8234,2.8239,2.8261,2.822,2.8222,2.8216,2.8214,2.823,2.8231,2.8237,2.8274,2.8275,2.8235,2.8236,2.8237,2.8238,0,0,0,0,0,0,0,2.8205,2.8209,2.8248,2.823,2.8228,2.8219,2.8219,2.8243,2.8235,2.8221,2.8219,2.8221,2.8229,2.8235,2.8237,2.8275,2.8235,2.8237,2.8238,2.8239,2.8347,2.8348,0,0,0,0,0,0,2.8206,2.8208,2.8247,2.8248,2.8213,2.8221,2.8222,2.8233,2.8234,2.8233,2.8222,2.8219,2.8233,2.8235,2.8237,2.8287,2.8237,2.8239,2.824,2.8345,2.8347,2.8349,0,0,0,0,0,0,2.8205,2.821,2.8247,2.8227,2.8231,2.8224,2.8236,2.8234,2.824,2.8235,2.8233,2.823,2.8231,2.8234,2.8264,2.8287,2.824,2.8242,2.8343,2.8345,2.8348,2.8389,0,0,0,0,0,0,2.8204,2.821,2.8227,2.8228,2.8233,2.8275,2.8238,2.8236,2.8244,2.824,2.8242,2.8241,2.823,2.8262,2.8266,2.8289,2.8243,2.8341,2.8344,2.8347,2.8386,2.8393,2.8399,0,0,0,0,0,2.8202,2.8239,2.8229,2.8233,2.8254,2.8276,2.8278,2.8266,2.8246,2.8263,2.8259,2.8241,2.8285,2.8265,2.827,2.8294,2.8339,2.8343,2.8347,2.8383,2.8392,2.8399,0,0,0,0,0,0,2.8241,2.8239,2.8227,2.8266,2.8271,2.827,2.8291,2.8276,2.8287,2.8283,2.8267,2.8268,2.83,2.83,2.8278,2.8336,2.8308,2.8313,2.8334,2.8342,2.8349,2.8347,2.8245,0,0,0,0,0,2.8255,2.8273,2.827,2.8304,2.8307,2.8299,2.8308,2.8298,2.8303,2.8305,2.8303,2.8309,2.8323,2.8333,2.8347,2.8387,2.8385,2.8405,2.8412,2.8417,2.8421,2.844,2.8448,2.8361,2.8361,2.8361,0,0,2.8282,2.8283,2.8295,2.8312,2.8315,2.8333,2.8301,2.8322,2.8335,2.8308,2.8335,2.8335,2.8339,2.8374,2.8389,2.8375,2.8445,2.8422,2.8427,2.8427,2.8445,2.8453,2.846,2.8364,2.8363,2.8363,0,0,2.834,2.8344,2.8371,2.8375,2.838,2.8374,2.8381,2.8382,2.838,2.8407,2.8387,2.8402,2.8428,2.8432,2.8437,2.8496,2.8479,2.8501,2.8535,2.8553,2.856,2.8566,2.8585,2.8592,2.8505,2.8505,2.8505,0,2.8373,2.8401,2.8388,2.841,2.8416,2.8393,2.842,2.8424,2.8433,2.8438,2.8423,2.8454,2.8456,2.849,2.8504,2.851,2.8515,2.85,2.856,2.8566,2.8571,2.8589,2.8596,2.8508,2.8507,2.8507,2.8507,0,2.844,2.8459,2.848,2.8489,2.8499,2.8524,2.8513,2.8525,2.8514,2.8509,2.8536,2.8538,2.855,2.8558,2.8548,2.859,2.858,2.8563,2.8535,2.8582,2.8598,2.8605,2.8511,2.851,2.851,2.8509,0,0,2.8522,2.8523,2.8531,2.8534,2.8537,2.8552,2.8575,2.8587,2.8595,2.8603,2.862,2.8643,2.8626,2.8632,2.8623,2.8639,2.8683,2.8619,2.8619,2.8629,2.8727,2.8738,2.8746,2.8672,2.8674,2.8675,2.8725,0,2.8578,2.8617,2.8605,2.8644,2.866,2.8638,2.8658,2.8661,2.8658,2.867,2.8666,2.8681,2.866,2.8663,2.8679,2.8674,2.8702,2.8671,2.8687,2.8687,2.8684,2.8755,2.8767,2.8815,2.8732,2.8733,2.8734,0,2.8648,2.8657,2.8697,2.8696,2.8702,2.872,2.8729,2.8742,2.8746,2.8742,2.8748,2.8735,2.8756,2.8729,2.8757,2.8736,2.8743,2.8742,2.8743,2.8742,2.8712,2.8753,2.883,2.8836,2.8744,2.8743,2.8742,0,2.8701,2.8723,2.8749,2.8753,2.8753,2.8766,2.8767,2.8769,2.8776,2.8784,2.8788,2.8799,2.8805,2.8813,2.8802,2.8784,2.8831,2.8804,2.8827,2.8827,2.8836,2.8835,2.8912,2.8844,2.8844,2.8844,2.8844,0,2.8762,2.8787,2.8773,2.8789,2.8816,2.8802,2.8829,2.8827,2.8829,2.8843,2.8826,2.8839,2.8825,2.8838,2.883,2.8853,2.8857,2.8853,2.885,2.8853,2.8853,2.8855,2.885,2.8846,2.8845,2.8845,2.8845,0,2.8825,2.8817,2.8844,2.8842,2.8842,2.8861,2.8859,2.8873,2.8868,2.8887,2.889,2.8882,2.8896,2.8886,2.89,2.8895,2.8925,2.8918,2.8923,2.892,2.8943,2.894,2.9022,2.9031,2.896,2.896,2.8961,0,2.8864,2.8882,2.8882,2.889,2.8892,2.8906,2.8913,2.89,2.8908,2.8913,2.8926,2.8938,2.8947,2.897,2.8965,2.8975,2.8967,2.8995,2.8968,2.897,2.8964,2.8963,2.8963,2.9,2.9001,2.9001,2.9002,0,2.8933,2.8927,2.8938,2.8947,2.8956,2.8963,2.8968,2.8976,2.8963,2.8973,2.8986,2.8993,2.9007,2.9018,2.9027,2.9027,2.9012,2.9011,2.9016,2.9018,2.9019,2.9016,2.8935,2.9008,2.9008,2.9007,2.9007,2.9007,2.8983,2.8997,2.8999,2.9011,2.9013,2.9018,2.9031,2.9027,2.9038,2.9048,2.904,2.9055,2.9057,2.9067,2.9069,2.908,2.9068,2.9077,2.9079,2.908,2.9082,2.9019,2.9082,2.9082,2.9082,2.9081,2.9081,0,2.9048,2.9048,2.906,2.9067,2.9076,2.9062,2.9067,2.9075,2.9089,2.9092,2.9101,2.9115,2.9126,2.9122,2.9132,2.9141,2.9135,2.9144,2.9142,2.9142,2.9093,2.9086,2.9149,2.9149,2.9149,2.9149,2.9149,2.9149,2.9083,2.9106,2.9101,2.9124,2.9124,2.9138,2.9142,2.9146,2.9148,2.9165,2.9174,2.9171,2.9171,2.918,2.9189,2.9188,2.9191,2.9202,2.9198,2.9152,2.9146,2.9139,2.9132,2.9204,2.9204,2.9245,2.9246,2.9246]}]]